Location: ????????
(42.0488°N, 44.0407°E)
Time: 05:37:12
(UTC+00:00)

CZ-3 R/B - Pass Details

Date: 07 June 2020
Orbit: 359 x 10253 km, 28.4° (Epoch: 03 July)

Event Time Altitude Azimuth Distance (km) Brightness Sun altitude
Exits shadow 00:42:08 - 246° (WSW) 12,862 6.6 -7.8°
Reaches altitude 10° 00:53:15 10° 244° (WSW) 10,745 6.2 -6.2°
Maximum altitude 01:23:17 44° 184° (S) 3,268 4.0 -1.6°
Drops below altitude 10° 01:31:41 10° 115° (ESE) 3,319 4.8 -0.3°
Sets 01:33:38 0° 107° (ESE) 3,828 5.3 0.0°
